Location: Bas-Clignon
(44.2000°N, 6.6333°E)
Time: 07:08:37
(UTC+00:00)

S3M - Pass Details

Date: 03 February 2023
Orbit: 948 x 1005 km, 83.0° (Epoch: 26 March)

Event Time Altitude Azimuth Distance (km) Brightness Sun altitude
Rises 18:26:59 0° 173° (S) 3,715 7.0 -18.4°
Reaches altitude 10° 18:29:33 10° 170° (S) 2,771 6.3 -18.9°
Maximum altitude 18:35:47 59° 92° (E) 1,150 4.0 -20.0°
Drops below altitude 10° 18:42:02 10° 15° (NNE) 2,781 6.2 -21.1°
Sets 18:44:36 0° 12° (NNE) 3,729 6.9 -21.6°
